Погода Гродно

Погода Гродно : погода сейчас, прогноз погоды и архив. Всё, что Вы хотите узнать о погоде Гродно!

Поиск расширенной информации на нашем сайте:

Другие новости

Новости СМИ2

Главная страница сайта

Новости сайта

03.07.2017

Напоминаем, что на нашем специализированном сайте Метеоцентр.Азия вы можете получить высокодетализированные автоматические прогнозы погоды по пунктам России, СНГ и мира в авиационном формате (включающие направление и скорость ветра, видимость, явления погоды, количество и форму облачности, нижнюю и верхнюю границу облачности).


Погода Гродно - сегодня

Время (UTC), дата Ветер
(°,м/с) 
Видим.   Явления Облачность Т
(°С)
Тd
(°С)
f(%) Тe
(°С)
Pmin
(гПа)
dP
(гПа)
Po
(мм)
O2
(г/м3)
Тmin Tmax R s Состояние
почвы
18 12.11.18 150 (ЮВ) 7-10{10}  2100 м  дымка  10/10 150 м 
[St]
+3.6 +2.9 95 1028  0.1  757  301    +3.6  0.0     
21 12.11.18 150 (ЮВ) 7-10{10}  2500 м  дымка  10/10 180 м 
[St]
+4.2 +3.2 93 +1  1027.7  -0.3  757  300           
00 13.11.18 160 (Ю) 7-10{10}  2600 м  дымка  10/10 180 м 
[St]
+4.4 +3.2 92 +1  1027.2  -0.4  757  300           
03 13.11.18 160 (Ю) 6{10}  3100 м  дымка  10/10 180 м 
[St]
+5 +4.1 94 +2  1026.6  -0.6  756  299           
06 13.11.18 160 (Ю) 8-11{11}  3400 м  дымка  10/10 150 м 
[St]
+5.2 +4.3 94 +2  1025.6  -0.9  755  298  +3.6         
09 13.11.18 170 (Ю) 9-13{13}  3900 м  дымка  10/10 150 м 
[St]
+5.6 +4.2 91 +2  1025.2  -0.4  755  297           
12 13.11.18 170 (Ю) 8-11{13}  4100 м  дымка  10/10 180 м 
[St]
+6.4 +4.6 88 +4  1023.9  -1.2  754  296           
15 13.11.18 170 (Ю) 7-11{11}  3700 м  дымка{дождь}  10/10 210 м 
[St]
+6.1 +4.7 91 +3  1022.4  -1.5  753  296      0.4     
18 13.11.18 180 (Ю) 6{10}  4500 м  в посл. час ливневой дождь  10/10 330 м 
[St]
+6.3 +4.9 91 +4  1021.3  -1.1  752  295    +6.5  0.5     
21 13.11.18 180 (Ю) 6{10}  4100 м  слаб. ливневой дождь  10/10 300 м кучево-дожд. 
[Cb calv]
+6.2 +5.1 93 +4  1019.3  -1.9  751  295           
00 14.11.18 210 (ЮЗ) 2500 м  слаб. ливневой дождь  10/10 210 м кучево-дожд. 
[Cb calv]
+6.5 +5.6 94 +6  1018.6  -0.7  750  294           
03 14.11.18 280 (З) 4400 м  дымка{ливн. осадки}  10/10 240 м 
[St]
+7.8 +7 95 +7  1018.5  -0.1  750  293         
06 14.11.18 290 (З) 7000 м  в посл. час ливневой дождь  9/8 270 м средняя 
[St|Ac trans]
+7.7 +6.8 94 +6  1019.3  0.8  751  293  +6.2       
09 14.11.18 290 (З) 8000 м  слаб. ливневой дождь  9/8 150 м кучево-дожд., средняя 
[Cb calv|Ac trans]
+7.8 +6.7 93 +7  1020.6  1.3  752  293           
12 14.11.18 300 (СЗ) 10 км  {ливн. осадки}  9/8 180 м средняя 
[St|Ac trans]
+8.3 +6.8 90 +7  1021.7  1.1  753  293           
15 14.11.18 320 (СЗ) 10 км  в посл. час ливневой дождь  9/6 330 м средняя 
[St|Ac trans]
+7.7 +6.4 91 +6  1023.4  1.6  754  294         
18 14.11.18 320 (СЗ) 10 км  {ливн. осадки}  8/6 210 м средняя 
[St|Ac trans]
+7.1 +6.4 95 +6  1024.7  1.3  755  295    +8.4     
21 14.11.18 310 (СЗ) 10 км  {ливн. осадки}  9/8 600 м средняя 
[Sc|Ac trans]
+6.8 +6.4 97 +5  1025.8  1.1  756  296           
00 15.11.18 320 (СЗ) 5000 м  дымка{ливн. осадки}  10/10 210 м 
[St]
+7.2 +6.8 97 +6  1027.2  1.3  757  296           
03 15.11.18 330 (СЗ) 4800 м  дымка  10/10 150 м 
[St]
+6.7 +6 95 +5  1028.1  0.9  757  297      0.4     
06 15.11.18 350 (С) 6000 м  слаб. ливневой дождь  9/8 210 м кучево-дожд., средняя 
[Cb calv|Ac trans]
+6.8 +6.4 97 +5  1029.6  1.5  758  297  +6.4    0.7     
09 15.11.18 030 (СВ) 8000 м  дымка{ливн. осадки}  9/8 330 м средняя 
[St|Ac trans]
+7.3 +5.5 88 +7  1031.1  1.4  759  297           
12 15.11.18 040 (СВ) 10 км  в посл. час ливневой дождь  9/8 540 м средняя 
[Sc|Ac trans]
+7.3 +3.2 75 +7  1032.3  1.2  760  298           
15 15.11.18 040 (СВ) 6{10}  11000 м    9/6 700 м средняя 
[Sc|Ac trans]
+6 +2.6 79 +4  1033.5  1.1  761  300      0.4     
18 15.11.18 080 (В) 10 км    8/8 700 м 
[Sc]
+5.2 +2.5 83 +4  1034.7  1.2  762  301    +8.3  0.4     
Время (UTC), дата Ветер
(°,м/с) 
Видим.   Явления Облачность Т
(°С)
Тd
(°С)
f(%) Тe
(°С)
Pmin
(гПа)
dP
(гПа)
Po
(мм)
O2
(г/м3)
Тmin Tmax R s Состояние
почвы

Для получения пояснительной информации подведите курсор к названию столбца.

ПОГОДА Гродно - архив

Всё, что Вы хотите узнать о погоде Гродно - удобно и подробно!

Выберите нужную дату (начиная с 1 января 2015* года) и нажмите кнопку "Найти".
Будут отображены архивные сводки погоды по пункту Гродно, начиная с указанной даты.


Отображать данные в формате CSV (для использования в таблицах Excel)


Внимание! Наш архив погоды предназначен исключительно для личного некоммерческого использования в познавательных целях. Если Вам необходимы официальные справки о состоянии погоды (для производственных, юридических, коммерческих и т.п. целей), обращайтесь в органы Росгидромета.

*Примечание: данная дата относится к архиву по метеостанциям СССР (Россия, СНГ, Балтия).
Архив по метеостанциям Зарубежной Европы и Азии (кроме Китая) хранится 10 дней, по другим регионам земного шара (Китай, Африка, Америка, Австралия, Океания) - 1 день.

Гродно - район местоположения метеостанции


Название, широта, долгота, высота метеостанции:
Гродно 53.6°ш. 24.1°д. 134 м над ур. моря [Беларусь]

Дополнительная информация

В oтличие oт бoльшинства пoгoдных сайтoв мы публикуем пoдрoбную метеoинфoрмацию в детальнoм прoфессиoнальнoм фoрмате.

Характеристики температуры и влажнoсти вoздуха измеряются на высoте 2 м в тени вдали oт зданий и деревьев.
Скoрoсть ветра измеряется на высoте 10 м (на урoвне рoста челoвека скoрoсть ветра ниже в 1.5-2 раза). Если метеoстанция нахoдится в гoрoде или в лесу, тo скoрoсть ветра занижена на 2-4 м/с пo сравнению с oткрытым местoм. Скoрoсть ветра над акватoриями крупных рек и oзёр, а также на вершинах хoлмoв на 2-5 м/с выше, чем в oбычных услoвиях.
Атмoсфернoе давление в разных тoчках местнoсти мoжет значительнo oтличаться oт давления на метеoстанции, в зависимoсти oт услoвий рельефа (при пoдъёме на 10 м давление пoнижается примернo на 1 мм рт.ст.).